Weather History for Los Alamos, NM

Change the Weather History Date:

Sunday, March 3, 2013

  Actual Average Record
Temperature  
Mean Temperature 50 °F -  
Max Temperature 60 °F 45 °F 62 °F (2009)
Min Temperature 41 °F 24 °F 2 °F (1971)
Degree Days  
Heating Degree Days 14    
Moisture  
Dew Point 15 °F    
Average Humidity 27    
Maximum Humidity 42    
Minimum Humidity 8    
Precipitation  
Precipitation 0.00 in - - ()
Sea Level Pressure  
Sea Level Pressure 30.06 in    
Wind  
Wind Speed 6 mph (SW)    
Max Wind Speed 25 mph    
Max Gust Speed 33 mph    
Visibility 10 miles    
Events      
Averages and records for this station are not official NWS values.
T = Trace of Precipitation, MM = Missing Value Source: NWS Daily Summary

Daily Weather History Graph

Daily Weather History Graph

Search for Another Location

Airport:

Trip Planner

Search our weather history database for the weather conditions in past years. The results will help you decide how hot, cold, wet, or windy it might be!

Date:

Astronomy

Mar. 03, 2013 Rise Set
Actual Time 6:32 AM MST 6:02 PM MST
Civil Twilight 6:06 AM MST 6:27 PM MST
Nautical Twilight 5:36 AM MST 6:57 PM MST
Astronomical Twilight 5:07 AM MST 7:27 PM MST
Moon No Moon Rise 10:02 AM MST (3/3)
Length of Visible Light 12h 21m
Length of Day
11h 30m
Waning Gibbous, 63% of the Moon is Illuminated
Mar 3
Waning Gibbous
Mar 4
Last Quarter
Mar 11
New
Mar 19
First Quarter
Mar 27
Full

Hourly Weather History & Observations

Time (MST) Temp. Windchill Dew Point Humidity Pressure Visibility Wind Dir Wind Speed Gust Speed Precip Events Conditions
12:15 AM 45.5 °F 43.2 °F 18.9 °F 35% 30.26 in 10.0 mi SSW 4.6 mph - N/A   Clear
12:35 AM 43.7 °F 41.1 °F 19.0 °F 37% 30.26 in 10.0 mi SSW 4.6 mph - N/A   Clear
12:55 AM 44.8 °F 41.0 °F 18.9 °F 36% 30.25 in 10.0 mi SW 6.9 mph - N/A   Clear
1:15 AM 44.1 °F 41.5 °F 19.0 °F 37% 30.25 in 10.0 mi SSW 4.6 mph - N/A   Clear
1:35 AM 44.1 °F 41.5 °F 19.4 °F 37% 30.25 in 10.0 mi SSW 4.6 mph - N/A   Clear
1:55 AM 44.4 °F 42.0 °F 19.8 °F 37% 30.23 in 10.0 mi South 4.6 mph - N/A   Clear
2:15 AM 43.9 °F 41.3 °F 20.1 °F 39% 30.23 in 10.0 mi SSW 4.6 mph - N/A   Clear
2:35 AM 44.2 °F 42.7 °F 20.1 °F 38% 30.21 in 10.0 mi SSW 3.5 mph - N/A   Clear
2:55 AM 45.3 °F 43.0 °F 19.6 °F 36% 30.20 in 10.0 mi SSW 4.6 mph - N/A   Clear
3:15 AM 45.3 °F 43.0 °F 19.4 °F 36% 30.19 in 10.0 mi South 4.6 mph - N/A   Clear
3:35 AM 45.7 °F - 19.2 °F 35% 30.18 in 10.0 mi Calm Calm - N/A   Clear
3:55 AM 43.9 °F - 19.2 °F 37% 30.18 in 10.0 mi Calm Calm - N/A   Clear
4:15 AM 43.7 °F 40.3 °F 19.2 °F 38% 30.17 in 10.0 mi South 5.8 mph - N/A   Clear
4:35 AM 43.7 °F 40.3 °F 19.0 °F 37% 30.17 in 10.0 mi SSW 5.8 mph - N/A   Clear
5:15 AM 43.3 °F 40.7 °F 19.2 °F 38% 30.16 in 10.0 mi SW 4.6 mph - N/A   Clear
5:35 AM 43.5 °F 40.9 °F 19.2 °F 38% 30.15 in 10.0 mi SSW 4.6 mph - N/A   Clear
5:55 AM 44.2 °F 42.7 °F 18.7 °F 36% 30.14 in 10.0 mi WSW 3.5 mph - N/A   Clear
6:15 AM 43.7 °F - 17.8 °F 35% 30.14 in 10.0 mi Calm Calm - N/A   Clear
6:35 AM 42.6 °F 39.0 °F 17.4 °F 36% 30.14 in 10.0 mi South 5.8 mph - N/A   Clear
6:55 AM 41.7 °F 37.3 °F 19.0 °F 40% 30.14 in 10.0 mi South 6.9 mph - N/A   Clear
7:15 AM 42.8 °F 39.3 °F 19.2 °F 39% 30.13 in 10.0 mi SSE 5.8 mph - N/A   Clear
7:35 AM 42.8 °F - 19.4 °F 39% 30.13 in 10.0 mi Calm Calm - N/A   Clear
7:55 AM 43.3 °F - 19.6 °F 39% 30.13 in 10.0 mi Calm Calm - N/A   Clear
8:15 AM 42.4 °F 40.7 °F 20.8 °F 42% 30.12 in 10.0 mi East 3.5 mph - N/A   Clear
8:35 AM 42.8 °F 39.3 °F 21.2 °F 42% 30.12 in 10.0 mi SSE 5.8 mph - N/A   Clear
8:55 AM 43.3 °F 40.7 °F 20.7 °F 40% 30.12 in 10.0 mi SSE 4.6 mph - N/A   Clear
9:15 AM 45.1 °F 41.4 °F 20.7 °F 38% 30.11 in 10.0 mi South 6.9 mph - N/A   Clear
9:35 AM 46.2 °F 43.3 °F 18.9 °F 34% 30.10 in 10.0 mi South 5.8 mph - N/A   Clear
9:55 AM 48.0 °F - 19.4 °F 32% 30.10 in 10.0 mi East 3.5 mph - N/A   Clear
10:15 AM 48.7 °F - 18.0 °F 29% 30.09 in 10.0 mi SE 5.8 mph - N/A   Clear
10:35 AM 49.6 °F - 18.1 °F 29% 30.08 in 10.0 mi SE 6.9 mph - N/A   Clear
10:55 AM 51.6 °F - 17.1 °F 26% 30.07 in 10.0 mi SE 6.9 mph - N/A   Clear
11:15 AM 53.8 °F - 14.9 °F 22% 30.05 in 10.0 mi South 6.9 mph - N/A   Clear
11:35 AM 57.4 °F - 3.4 °F 11% 30.04 in 10.0 mi WSW 16.1 mph 24.2 mph N/A   Clear
11:55 AM 59.0 °F - -2.0 °F 8% 30.03 in 10.0 mi WSW 18.4 mph 31.1 mph N/A   Clear
12:15 PM 60.4 °F - -1.5 °F 8% 30.03 in 10.0 mi West 25.3 mph 33.4 mph N/A   Clear
12:35 PM 57.4 °F - 0.3 °F 10% 30.02 in 10.0 mi West 18.4 mph 31.1 mph N/A   Clear
12:55 PM 58.6 °F - 3.6 °F 11% 30.01 in 10.0 mi WNW 16.1 mph 26.5 mph N/A   Clear
1:15 PM 59.5 °F - 3.0 °F 10% 30.01 in 10.0 mi West 11.5 mph 31.1 mph N/A   Clear
1:35 PM 58.6 °F - 1.0 °F 10% 29.99 in 10.0 mi WNW 15.0 mph 25.3 mph N/A   Clear
1:55 PM 58.8 °F - 1.8 °F 10% 29.98 in 10.0 mi SW 13.8 mph 17.3 mph N/A   Clear
2:15 PM 58.5 °F - 1.9 °F 10% 29.97 in 10.0 mi SSW 6.9 mph - N/A   Scattered Clouds
2:35 PM 59.7 °F - 4.3 °F 11% 29.96 in 10.0 mi SW 9.2 mph 17.3 mph N/A   Overcast
2:55 PM 60.1 °F - 3.7 °F 11% 29.96 in 10.0 mi NW 11.5 mph 19.6 mph N/A   Mostly Cloudy
3:15 PM 58.5 °F - 4.3 °F 11% 29.97 in 10.0 mi WSW 8.1 mph 29.9 mph N/A   Mostly Cloudy
3:35 PM 58.3 °F - 5.9 °F 12% 29.96 in 10.0 mi West 11.5 mph 21.9 mph N/A   Scattered Clouds
3:55 PM 57.7 °F - 7.0 °F 13% 29.97 in 10.0 mi WSW 9.2 mph 20.7 mph N/A   Scattered Clouds
4:15 PM 58.1 °F - 7.5 °F 13% 29.96 in 10.0 mi WSW 11.5 mph 21.9 mph N/A   Scattered Clouds
4:35 PM 56.7 °F - 9.7 °F 15% 29.95 in 10.0 mi West 10.4 mph 23.0 mph N/A   Clear
4:55 PM 55.4 °F - 10.2 °F 17% 29.96 in 10.0 mi WSW 11.5 mph 20.7 mph N/A   Clear
5:35 PM 53.1 °F - 10.9 °F 19% 29.96 in 10.0 mi West 5.8 mph - N/A   Clear
5:55 PM 52.7 °F - 10.9 °F 19% 29.96 in 10.0 mi Calm Calm - N/A   Clear
6:15 PM 52.2 °F - 11.1 °F 19% 29.97 in 10.0 mi Calm Calm - N/A   Clear
6:35 PM 51.8 °F - 11.3 °F 20% 29.97 in 10.0 mi Calm Calm - N/A   Clear
6:55 PM 51.3 °F - 11.3 °F 20% 29.98 in 10.0 mi Calm Calm - N/A   Clear
7:15 PM 50.7 °F - 11.7 °F 21% 29.97 in 10.0 mi West 4.6 mph - N/A   Clear
7:35 PM 50.0 °F - 12.2 °F 22% 29.97 in 10.0 mi Calm Calm - N/A   Clear
7:55 PM 49.1 °F - 16.2 °F 27% 29.96 in 10.0 mi West 5.8 mph - N/A   Clear
8:15 PM 48.9 °F - 16.7 °F 28% 29.96 in 10.0 mi SW 8.1 mph 17.3 mph N/A   Clear
8:35 PM 48.2 °F - 16.3 °F 28% 29.97 in 10.0 mi Calm Calm - N/A   Clear
8:55 PM 48.4 °F - 16.2 °F 28% 29.97 in 10.0 mi Calm Calm - N/A   Clear
9:15 PM 48.7 °F - 15.8 °F 27% 29.96 in 10.0 mi West 4.6 mph - N/A   Clear
9:35 PM 48.4 °F - 16.2 °F 28% 29.96 in 10.0 mi Calm Calm - N/A   Clear
9:55 PM 48.2 °F - 17.1 °F 29% 29.95 in 10.0 mi West 11.5 mph 21.9 mph N/A   Clear
10:15 PM 48.2 °F - 17.8 °F 30% 29.95 in 10.0 mi WSW 12.7 mph - N/A   Clear
10:35 PM 48.4 °F - 19.2 °F 32% 29.95 in 10.0 mi WSW 11.5 mph 18.4 mph N/A   Clear
10:55 PM 48.2 °F - 21.2 °F 34% 29.94 in 10.0 mi WSW 12.7 mph 20.7 mph N/A   Clear
11:15 PM 48.2 °F - 23.0 °F 37% 29.94 in 10.0 mi WSW 15.0 mph 19.6 mph N/A   Clear
11:35 PM 48.2 °F - 23.0 °F 37% 29.94 in 10.0 mi WSW 12.7 mph 18.4 mph N/A   Clear
11:55 PM 48.0 °F - 23.7 °F 39% 29.93 in 10.0 mi SW 9.2 mph - N/A   Clear